Location: Dillon
(41.1766°N, 107.0923°W)
Time: 05:39:32
(UTC+00:00)

XW-2A - Visible Passes

Search period start: 28 June 2022 00:00
Search period end: 08 July 2022 00:00
Orbit: 398 x 413 km, 97.2° (Epoch: 27 June)

Date Brightness Start Highest point End Pass type
(mag) Time Alt. Az. Time Alt. Az. Time Alt. Az.
28 Jun ? 03:27:50 10° SE 03:30:21 23° ENE 03:32:52 10° NNE visible
28 Jun ? 05:00:30 10° SW 05:02:13 14° W 05:04:02 10° WNW visible
29 Jun ? 04:11:27 20° S 04:13:27 77° WSW 04:16:35 10° NNW visible
30 Jun ? 03:22:41 10° ESE 03:24:59 19° ENE 03:27:19 10° NNE visible
30 Jun ? 04:55:05 12° SW 04:56:48 17° W 04:58:56 10° NW visible
01 Jul ? 04:05:57 20° SSE 04:08:00 86° ENE 04:11:07 10° N visible
02 Jul ? 03:17:28 10° ESE 03:19:31 17° ENE 03:21:34 10° NNE visible
02 Jul ? 04:49:31 14° SW 04:51:14 20° W 04:53:38 10° NW visible
03 Jul ? 04:00:20 19° SSE 04:02:25 69° ENE 04:05:31 10° N visible
04 Jul ? 04:43:50 16° SW 04:45:32 24° W 04:48:08 10° NW visible
05 Jul ? 03:54:34 18° SSE 03:56:41 55° ENE 03:59:44 10° N visible
06 Jul ? 04:38:00 18° SSW 04:39:42 29° W 04:42:28 10° NW visible
07 Jul ? 03:48:41 16° SE 03:50:50 43° ENE 03:53:48 10° N visible
